Location: Dana
(41.8364°N, 106.7042°W)
Time: 14:57:50
(UTC+00:00)

SR - Pass Details

Date: 11 May 2026
Orbit: 567 x 853 km, 66.7° (Epoch: 7 June)

Event Time Altitude Azimuth Distance (km) Brightness Sun altitude
Rises 14:49:55 0° 201° (SSW) 2,920 ? 31.6°
Reaches altitude 10° 14:52:06 10° 199° (SSW) 2,056 ? 32.0°
Maximum altitude 14:56:44 68° 116° (ESE) 750 ? 32.9°
Drops below altitude 10° 15:01:50 10° 35° (NE) 2,258 ? 33.8°
Sets 15:04:20 0° 33° (NNE) 3,233 ? 34.3°
